Terminal Aerodrome Forecast
Issued by NWS Dodge City, KS

Home | Current Version | Previous Version | Graphics & Text | Print | Product List | Glossary Off
Versions: 1 2 3 4 5 6 7 8 9 10 11 12 13 14 15 16 17 18

000
FTUS43 KDDC 230133 AAB
TAFDDC
TAF AMD
KDDC 230133Z 2302/2324 17014KT P6SM BKN010 OVC060
     FM230600 17008KT 4SM BR BKN007
     FM230900 VRB05KT 1/2SM FG OVC005
     FM231700 16006KT P6SM SCT035=

USA.gov is the U.S. government's official web portal to all federal, state and local government web resources and services.